Regional Weather Roundup
Issued by NWS

Home | Current Version | Previous Version | Graphics & Text | Print | Product List | Glossary On
Versions: 1 2 3 4 5 6 7 8 9 10 11 12 13 14 15 16 17 18 19 20 21 22 23 24 25 26 27 28 29 30 31 32 33 34 35 36 37 38 39 40 41 42 43 44 45 46 47 48 49 50
000
ASUS45 KCYS 121410
RWRWY

WYOMING REGIONAL WEATHER ROUNDUP
NATIONAL WEATHER SERVICE CHEYENNE WY
800 AM MDT SAT JUL 12 2014

NOTE:  "FAIR" INDICATES FEW OR NO CLOUDS BELOW 12,000 FEET
WITH NO SIGNIFICANT WEATHER AND/OR OBSTRUCTIONS TO VISIBILITY.

WYZ001-121500-
YELLOWSTONE NATIONAL PARK

CITY           SKY/WX    TMP DP  RH WIND       PRES   REMARKS
LK YELLOWSTONE   N/A     54  48  80 CALM      30.47R
W YELLOWSTONE  NOT AVBL

$$
WYZ002>013-054>058-071-098>099-121500-
NORTHERN WYOMING

CITY           SKY/WX    TMP DP  RH WIND       PRES   REMARKS
JACKSON        PTSUNNY   54  52  94 CALM      30.40R
CODY           MOSUNNY   64  54  68 SW7       30.28S
GREYBULL       MOSUNNY   70  57  63 SE3       30.20S
WORLAND        SUNNY     70  55  59 N6        30.22S
SHERIDAN       MOSUNNY   67  57  70 NW9       30.22R
BUFFALO        MOSUNNY   67  53  61 N17G26    30.26R
GILLETTE       PTSUNNY   66  57  72 W3        30.21R
HULETT         FAIR      66  57  72 MISG      30.20
NEWCASTLE      FAIR      64  55  72 CALM      30.22

$$
WYZ014>020-022>026-101>103-121500-
CENTRAL WYOMING

CITY           SKY/WX    TMP DP  RH WIND       PRES   REMARKS
BIG PINEY      SUNNY     57  47  69 CALM      30.40R
PINEDALE       SUNNY     55  48  76 W5        30.40S
DUBOIS         FAIR      54  45  71 NW12      30.39R
LANDER         SUNNY     62  56  80 E3        30.28S
RIVERTON       SUNNY     65  57  75 NW3       30.30R
CASPER         SUNNY     65  57  75 SW7       30.26R
DOUGLAS        CLOUDY    64  58  80 S6        30.26R

$$
WYZ021-027>030-104>119-121500-
SOUTHERN WYOMING

CITY           SKY/WX    TMP DP  RH WIND       PRES   REMARKS
EVANSTON       SUNNY     58  53  84 CALM      30.39R
KEMMERER       SUNNY     59  48  67 N8        30.40S
FORT BRIDGER   FAIR      61  53  74 E6        30.42R
ROCK SPRINGS   PTSUNNY   60  52  74 CALM      30.37R
DIXON          FAIR      63  58  83 CALM      30.37R
RAWLINS        MOSUNNY   64  54  69 W10       30.35R
SARATOGA       FAIR      61  55  82 CALM      30.37R
LARAMIE        CLOUDY    57  54  89 MISG      30.35R
CHEYENNE       MOSUNNY   61  57  87 W6        30.28R
TORRINGTON     CLOUDY    64  59  83 N5        30.20R

$$



USA.gov is the U.S. government's official web portal to all federal, state and local government web resources and services.